DAH6105 DAAG-DAOO

Flight info

Callsign DAH6105
Flight time N/A
Altitude 30000
Route CHE1B DAHRA UA411 MOS
Aircraft B738/M-SDE2E3FGHIRWXY/LB1

Departure

Time 2026-04-29 17:48
Airport Houari Boumediene Airport (DAAG)

Arrival

Time N/A
Airport Oran Es-Sénia (Ahmed Ben Bella) International Airport (DAOO)
Time Latitude Longitude Altitude Speed Heading
2026-04-29 17:37 36.69707 3.20496 75 ft 0 kts 51°
2026-04-29 17:40 36.69699 3.20485 64 ft 4 kts 49°
2026-04-29 17:40 36.69683 3.20458 64 ft 4 kts 54°
2026-04-29 17:40 36.69667 3.20430 64 ft 4 kts 54°
2026-04-29 17:41 36.69651 3.20403 64 ft 4 kts 54°
2026-04-29 17:41 36.69638 3.20382 64 ft 4 kts 29°
2026-04-29 17:41 36.69616 3.20380 64 ft 4 kts 332°
2026-04-29 17:41 36.69596 3.20393 64 ft 1 kts 336°
2026-04-29 17:43 36.69599 3.20393 64 ft 3 kts 347°
2026-04-29 17:43 36.69627 3.20437 67 ft 12 kts 93°
2026-04-29 17:44 36.69598 3.20605 69 ft 28 kts 100°
2026-04-29 17:44 36.69607 3.20870 67 ft 36 kts 77°
2026-04-29 17:44 36.69491 3.21065 65 ft 34 kts 159°
2026-04-29 17:44 36.69307 3.21136 67 ft 12 kts 163°
2026-04-29 17:45 36.69275 3.21147 68 ft 3 kts 167°
2026-04-29 17:45 36.69255 3.21151 66 ft 5 kts 173°
2026-04-29 17:45 36.69190 3.21130 70 ft 0 kts 221°
2026-04-29 17:45 36.69176 3.21112 66 ft 6 kts 227°
2026-04-29 17:46 36.69175 3.21111 66 ft 0 kts 227°
2026-04-29 17:46 36.69174 3.21109 68 ft 1 kts 227°
2026-04-29 17:46 36.69171 3.21106 68 ft 1 kts 227°
2026-04-29 17:46 36.69161 3.21091 70 ft 4 kts 229°
2026-04-29 17:47 36.69138 3.21056 67 ft 6 kts 232°
2026-04-29 17:47 36.69119 3.20997 84 ft 9 kts 262°
2026-04-29 17:47 36.69115 3.20906 81 ft 1 kts 270°
2026-04-29 17:47 36.69116 3.20707 84 ft 84 kts 271°
2026-04-29 17:48 36.69170 3.19366 585 ft 200 kts 273°
2026-04-29 17:48 36.69190 3.17603 2512 ft 198 kts 270°
2026-04-29 17:48 36.69282 3.15899 3585 ft 207 kts 283°
2026-04-29 17:48 36.69860 3.14102 4126 ft 238 kts 300°
2026-04-29 17:49 36.70928 3.12431 4962 ft 257 kts 318°
2026-04-29 17:49 36.72617 3.11535 5868 ft 276 kts 354°
2026-04-29 17:49 36.74556 3.11607 6832 ft 283 kts 358°
2026-04-29 17:49 36.76548 3.11491 7973 ft 289 kts 354°
2026-04-29 17:50 36.78538 3.11339 9279 ft 292 kts 353°
2026-04-29 17:50 36.80584 3.11212 10445 ft 296 kts 352°
2026-04-29 17:50 36.82662 3.10711 11095 ft 318 kts 338°
2026-04-29 17:50 36.84753 3.09498 11689 ft 342 kts 326°
2026-04-29 17:51 36.86786 3.07914 12971 ft 349 kts 324°
2026-04-29 17:51 36.88836 3.06237 14437 ft 353 kts 323°
2026-04-29 17:51 36.90920 3.04542 15782 ft 360 kts 324°
2026-04-29 17:51 36.93064 3.02825 17046 ft 370 kts 324°
2026-04-29 17:52 36.95262 3.01091 18339 ft 378 kts 324°
2026-04-29 17:52 36.96744 2.99932 19106 ft 382 kts 324°
2026-04-29 17:52 36.99792 2.97558 20695 ft 390 kts 324°
2026-04-29 17:52 37.02121 2.95743 21840 ft 397 kts 324°
2026-04-29 17:53 37.04289 2.93625 22738 ft 398 kts 308°
2026-04-29 17:53 37.05739 2.90730 23744 ft 398 kts 289°
2026-04-29 17:53 37.06367 2.87366 25087 ft 388 kts 273°
2026-04-29 17:53 37.06191 2.84096 26514 ft 380 kts 258°
2026-04-29 17:54 37.05414 2.80978 27947 ft 375 kts 249°
2026-04-29 17:54 37.04148 2.78209 29068 ft 383 kts 234°
2026-04-29 17:54 37.02358 2.75698 29832 ft 389 kts 231°
2026-04-29 17:55 36.98617 2.70786 29938 ft 386 kts 230°
2026-04-29 17:55 36.94952 2.65966 29914 ft 380 kts 231°
2026-04-29 17:56 36.91378 2.61187 29927 ft 379 kts 231°
2026-04-29 17:56 36.87791 2.56361 29938 ft 379 kts 231°
2026-04-29 17:57 36.84208 2.51539 29940 ft 379 kts 231°
2026-04-29 17:57 36.80611 2.46705 29939 ft 380 kts 231°
2026-04-29 17:58 36.77001 2.41861 29932 ft 381 kts 231°
2026-04-29 17:58 36.73389 2.37022 29935 ft 381 kts 231°
2026-04-29 17:59 36.69793 2.32213 29923 ft 381 kts 231°